Location: St. Louis
(38.6270°N, 90.1994°W)
Time: 06:30:26
(UTC-06:00)

A-11 Canister half - Pass Details

Date: 08 December 2021
Orbit: 1524 x 1684 km, 47.3° (Epoch: 17 January)

Event Time Altitude Azimuth Distance (km) Brightness Sun altitude
Rises 05:46:54 0° 299° (WNW) 4,928 - -15.1°
Reaches altitude 10° 05:50:05 10° 300° (WNW) 3,927 - -14.5°
Exits shadow 05:51:45 17° 301° (WNW) 3,417 10.2 -14.2°
Maximum altitude 06:00:13 86° 31° (NNE) 1,642 9.1 -12.6°
Drops below altitude 10° 06:09:58 10° 120° (ESE) 3,799 12.6 -10.8°
Sets 06:13:00 0° 121° (ESE) 4,762 13.6 -10.3°
